Regional Weather Roundup
Issued by NWS Kansas City/Pleasant Hill, MO

Home | Current Version | Previous Version | Text Only | Print | Product List | Glossary On
Versions: 1 2 3 4 5 6 7 8 9 10 11 12 13 14 15 16 17 18 19 20 21 22 23 24 25 26 27
000
ASUS43 KEAX 261310
RWREAX

WEATHER ROUNDUP FOR EASTERN KANSAS AND NORTHWEST MISSOURI
NATIONAL WEATHER SERVICE KANSAS CITY/PLEASANT HILL MO
800 AM CDT THU MAY 26 2016

KSZ040-057-103>105-MOZ028-029-037-043-261400-
...KANSAS CITY METROPOLITAN AREA...

CITY           SKY/WX    TMP DP  RH WIND       PRES   REMARKS
K.C. INTL      MOSUNNY   68  63  84 SE3       29.90R
K.C. DOWNTOWN  CLOUDY    69  63  81 S5        29.89F
LEES SUMMIT    CLOUDY    65  63  93 SE5       29.92R
OLATHE - IXD   CLOUDY    67  62  84 E8        29.90S
OLATHE - OJC   PTSUNNY   65  62  90 S6        29.91R
LAWRENCE       PTSUNNY   68  63  84 SE7       29.88S

$$

MOZ001>008-011>017-020>025-030>033-038>040-044>046-053-054-261400-
...NORTHERN AND CENTRAL MISSOURI...

CITY           SKY/WX    TMP DP  RH WIND       PRES   REMARKS
ST. JOSEPH     CLOUDY    67  62  84 N6        29.87F
MOSBY          CLOUDY    64  63  94 CALM      29.90S
WARRENSBURG    CLOUDY    64  59  82 S10       29.92R
WHITEMAN AFB   PTSUNNY   63  63 100 SW15      29.91R
CLINTON        LGT RAIN  64  63  94 SE7       29.95S
SEDALIA        CLOUDY    70  58  65 SE21      29.89F
WARSAW         NOT AVBL
CHILLICOTHE      N/A     67  61  81 NE3       29.89R
KIRKSVILLE     CLOUDY    70  67  90 NE7       29.92R

$$

MOZ041-047>049-056>058-063>065-088>090-097-261400-
...EASTERN AND SOUTHERN MISSOURI...

CITY           SKY/WX    TMP DP  RH WIND       PRES   REMARKS
ST. LOUIS INTL TSTM      67  63  87 N6        30.02S
SPIRIT OF STL  LGT RAIN  66  65  96 CALM      29.97F
COLUMBIA       PTSUNNY   65  63  93 SW10      29.97R
JEFFERSON CITY CLOUDY    66  63  90 NW5       29.98R
ROLLA          CLOUDY    63  62  97 SE5       29.97R
SPRINGFIELD    PTSUNNY   74  70  87 SE7       29.97S
BRANSON        MOSUNNY   73  73 100 S7        29.99R
JOPLIN         CLOUDY    76  72  87 SW5       29.94R
WEST PLAINS    PTSUNNY   74  70  87 S9        30.01S FOG

$$

IAZ060-094-KSZ022-034>040-054-083-096-NEZ052-066-093-261400-
...KANSAS...SOUTHEAST NEBRASKA AND IOWA...

CITY           SKY/WX    TMP DP  RH WIND       PRES   REMARKS
TOPEKA         CLOUDY    68  62  81 E6        29.87S
MANHATTAN      MOSUNNY   71  64  78 E6        29.84F
EMPORIA        CLOUDY    74  73  97 SE7       29.86S FOG
CHANUTE        CLOUDY    77  73  87 S10G20    29.89S FOG
WICHITA        PTSUNNY   77  72  84 SE13      29.81F HAZE
OMAHA          MOSUNNY   65  59  81 CALM      29.88S
LINCOLN        SUNNY     64  58  80 CALM      29.89F
FALLS CITY     SUNNY     68  63  84 E6        29.86F
LAMONI         SUNNY     67  63  87 E6        29.89S
DES MOINES     MOSUNNY   66  59  78 E5        29.88S

$$





USA.gov is the U.S. government's official web portal to all federal, state and local government web resources and services.